Погода в Дубовской

Россия / Чеченская Республика     43°47′24″N   46°33′09″E
темп.,
°C
ветер,
м/с
пор.,
м/с
влажн.,
%
обл.,
%
осадки,
мм/ч
давл.,
гПа
погр.,
м
5 августа, чт
чт500:00+29зюз61243100 0.0 1011325
03:00+27зюз61149100 0.0 1011304
06:00+27з8125898 0.0 1012474
09:00+34зсз66325 0.0 10121184
12:00+38зсз432386 0.1 10102131
15:00+40с53195 0.1 10093132
18:00+34вюв58293 1.0 1010369
21:00+27в22535 1.1 101012
6 августа, пт
пт600:00+25св33540 0.0 101032
03:00+23в22520 0.0 100914
06:00+25всв24585 0.0 1010105
09:00+35в45240 0.0 10091128
12:00+40в66180 0.0 10072530
15:00+39в98170 0.0 10062507
18:00+34в89290 0.0 10061137
21:00+25в613740 0.0 1006364
7 августа, сб
сб700:00+24всв411840 0.0 1006241
03:00+23в39907 0.0 1005183
06:00+25в310725 0.0 1005305
09:00+35вюв69300 0.0 10041119
12:00+41вюв1010130 0.0 10022087
15:00+40вюв1111145 0.0 10011636
18:00+35вюв916250 0.0 1001777
21:00+30в919401 0.0 1002473
8 августа, вс
вс800:00+28вюв61354100 0.0 1003383
03:00+24ююв3564100 0.0 100482
06:00+27зюз5104999 0.0 1006346
09:00+33з81038100 0.0 1007962
12:00+39зсз782393 0.0 10061832
15:00+41зсз66200 0.0 10062552
18:00+38зсз66210 0.0 10072246
21:00+28зюз48505 0.3 1009127
9 августа, пн
пн900:00+26зюз48605 0.0 1010136
03:00+25з511705 0.1 1011209
06:00+25з466711 0.0 1011171
09:00+34сз44345 0.0 10121117
12:00+38сз42275 0.0 10112408
15:00+40ссз33235 0.0 10093039
18:00+31вюв61047100 0.8 1011375
21:00+26ю4770100 4.3 1012102